Time,TemperatureF,DewpointF,PressureIn,WindDirection,WindDirectionDegrees,WindSpeedMPH,WindSpeedGustMPH,Humidity,HourlyPrecipIn,Conditions,Clouds,dailyrainin,SoftwareType,DateUTC
2013-01-14 09:03:00,14.0,10.0,30.47,NW,319,3.0,6.0,84,0.00,,,0.00,,2013-01-14 15:03:00,
2013-01-14 09:12:00,14.0,10.0,30.47,NW,319,3.0,6.0,84,0.00,,,0.00,,2013-01-14 15:12:00,
2013-01-14 09:23:00,15.0,11.0,30.47,NNW,342,1.0,5.0,84,0.00,,,0.00,,2013-01-14 15:23:00,
2013-01-14 09:33:00,15.0,11.0,30.46,NNW,347,1.0,5.0,84,0.00,,,0.00,,2013-01-14 15:33:00,
2013-01-14 09:43:00,15.0,11.0,30.46,NNW,347,1.0,5.0,84,0.00,,,0.00,,2013-01-14 15:43:00,
2013-01-14 09:53:00,16.0,12.0,30.47,North,349,2.0,6.0,84,0.00,,,0.00,,2013-01-14 15:53:00,
2013-01-14 10:03:00,16.0,12.0,30.47,NW,313,1.0,4.0,84,0.00,,,0.00,,2013-01-14 16:03:00,
2013-01-14 10:12:00,16.0,12.0,30.47,NW,313,1.0,4.0,84,0.00,,,0.00,,2013-01-14 16:12:00,
2013-01-14 10:23:00,17.0,13.0,30.45,North,355,1.0,4.0,84,0.00,,,0.00,,2013-01-14 16:23:00,
2013-01-14 10:33:00,18.0,14.0,30.45,NNW,329,1.0,5.0,84,0.00,,,0.00,,2013-01-14 16:33:00,
2013-01-14 10:43:00,18.0,14.0,30.45,NNW,329,1.0,5.0,84,0.00,,,0.00,,2013-01-14 16:43:00,
2013-01-14 10:53:00,19.0,15.0,30.47,North,355,1.0,4.0,84,0.00,,,0.00,,2013-01-14 16:53:00,
2013-01-14 11:03:00,19.0,14.0,30.48,NNW,339,1.0,4.0,82,0.00,,,0.00,,2013-01-14 17:03:00,
2013-01-14 11:12:00,19.0,14.0,30.48,NNW,339,1.0,4.0,82,0.00,,,0.00,,2013-01-14 17:12:00,
2013-01-14 11:23:00,19.0,14.0,30.48,WNW,302,3.0,6.0,82,0.00,,,0.00,,2013-01-14 17:23:00,
2013-01-14 11:33:00,19.0,15.0,30.47,NNW,346,2.0,6.0,83,0.00,,,0.00,,2013-01-14 17:33:00,
2013-01-14 11:43:00,19.0,15.0,30.47,NNW,346,2.0,6.0,83,0.00,,,0.00,,2013-01-14 17:43:00,
2013-01-14 11:53:00,20.0,16.0,30.47,NW,309,1.0,6.0,83,0.00,,,0.00,,2013-01-14 17:53:00,
2013-01-14 12:03:00,20.0,16.0,30.46,NW,318,2.0,5.0,83,0.00,,,0.00,,2013-01-14 18:03:00,
2013-01-14 12:13:00,20.0,16.0,30.46,NW,318,2.0,5.0,83,0.00,,,0.00,,2013-01-14 18:13:00,
2013-01-14 12:23:00,20.0,16.0,30.46,NW,318,2.0,5.0,83,0.00,,,0.00,,2013-01-14 18:23:00,
2013-01-14 12:33:00,21.0,16.0,30.46,NNW,333,2.0,8.0,81,0.00,,,0.00,,2013-01-14 18:33:00,
2013-01-14 12:43:00,21.0,16.0,30.46,NNW,333,2.0,8.0,81,0.00,,,0.00,,2013-01-14 18:43:00,
2013-01-14 12:53:00,21.0,16.0,30.47,NW,325,1.0,5.0,81,0.00,,,0.00,,2013-01-14 18:53:00,
2013-01-14 13:03:00,21.0,16.0,30.46,NW,317,2.0,6.0,79,0.00,,,0.00,,2013-01-14 19:03:00,
2013-01-14 13:12:00,21.0,16.0,30.46,NW,317,2.0,6.0,79,0.00,,,0.00,,2013-01-14 19:12:00,
2013-01-14 13:22:00,22.0,16.0,30.47,NW,320,1.0,4.0,78,0.00,,,0.00,,2013-01-14 19:22:00,
2013-01-14 13:33:00,23.0,17.0,30.47,NNW,334,1.0,5.0,77,0.00,,,0.00,,2013-01-14 19:33:00,
2013-01-14 13:43:00,23.0,17.0,30.47,NNW,334,1.0,5.0,77,0.00,,,0.00,,2013-01-14 19:43:00,
2013-01-14 13:52:00,23.0,17.0,30.47,NNW,334,1.0,5.0,77,0.00,,,0.00,,2013-01-14 19:52:00,
2013-01-14 14:03:00,23.0,16.0,30.45,NNW,348,2.0,6.0,75,0.00,,,0.00,,2013-01-14 20:03:00,
2013-01-14 14:13:00,23.0,16.0,30.45,NNW,348,2.0,6.0,75,0.00,,,0.00,,2013-01-14 20:13:00,
2013-01-14 14:22:00,24.0,17.0,30.46,North,350,1.0,5.0,75,0.00,,,0.00,,2013-01-14 20:22:00,
2013-01-14 14:33:00,25.0,18.0,30.47,NNW,333,2.0,4.0,75,0.00,,,0.00,,2013-01-14 20:33:00,
2013-01-14 14:43:00,25.0,18.0,30.47,NNW,333,2.0,4.0,75,0.00,,,0.00,,2013-01-14 20:43:00,
2013-01-14 14:53:00,25.0,16.0,30.47,NNW,331,1.0,4.0,67,0.00,,,0.00,,2013-01-14 20:53:00,
2013-01-14 15:03:00,26.0,16.0,30.48,NNW,334,3.0,6.0,66,0.00,,,0.00,,2013-01-14 21:03:00,
2013-01-14 15:12:00,26.0,16.0,30.48,NNW,334,3.0,6.0,66,0.00,,,0.00,,2013-01-14 21:12:00,
2013-01-14 15:23:00,26.0,17.0,30.47,North,349,1.0,6.0,68,0.00,,,0.00,,2013-01-14 21:23:00,
2013-01-14 15:33:00,25.0,16.0,30.47,North,9,1.0,4.0,68,0.00,,,0.00,,2013-01-14 21:33:00,
2013-01-14 15:42:00,25.0,16.0,30.47,North,9,1.0,4.0,68,0.00,,,0.00,,2013-01-14 21:42:00,
2013-01-14 15:53:00,25.0,16.0,30.47,West,268,0.0,3.0,69,0.00,,,0.00,,2013-01-14 21:53:00,
2013-01-14 16:03:00,25.0,17.0,30.48,NNW,348,0.0,3.0,70,0.00,,,0.00,,2013-01-14 22:03:00,
2013-01-14 16:12:00,25.0,17.0,30.48,NNW,348,0.0,3.0,70,0.00,,,0.00,,2013-01-14 22:12:00,
2013-01-14 16:23:00,25.0,16.0,30.48,North,355,0.0,2.0,67,0.00,,,0.00,,2013-01-14 22:23:00,
2013-01-14 16:33:00,24.0,16.0,30.47,North,355,0.0,2.0,71,0.00,,,0.00,,2013-01-14 22:33:00,
2013-01-14 16:43:00,24.0,16.0,30.47,North,355,0.0,2.0,71,0.00,,,0.00,,2013-01-14 22:43:00,
2013-01-14 16:52:00,24.0,15.0,30.47,North,355,0.0,0.0,68,0.00,,,0.00,,2013-01-14 22:52:00,
2013-01-14 17:03:00,24.0,15.0,30.47,North,355,0.0,0.0,69,0.00,,,0.00,,2013-01-14 23:03:00,
2013-01-14 17:12:00,24.0,15.0,30.47,North,355,0.0,0.0,69,0.00,,,0.00,,2013-01-14 23:12:00,
2013-01-14 17:23:00,23.0,15.0,30.47,North,355,0.0,0.0,72,0.00,,,0.00,,2013-01-14 23:23:00,
2013-01-14 17:33:00,23.0,16.0,30.46,North,355,0.0,0.0,74,0.00,,,0.00,,2013-01-14 23:33:00,
2013-01-14 17:43:00,23.0,16.0,30.46,North,355,0.0,0.0,74,0.00,,,0.00,,2013-01-14 23:43:00,
2013-01-14 17:52:00,22.0,15.0,30.46,North,355,0.0,0.0,74,0.00,,,0.00,,2013-01-14 23:52:00,
2013-01-14 18:02:00,22.0,16.0,30.46,North,355,0.0,0.0,77,0.00,,,0.00,,2013-01-15 00:02:00,
2013-01-14 18:12:00,22.0,16.0,30.46,North,355,0.0,0.0,77,0.00,,,0.00,,2013-01-15 00:12:00,
2013-01-14 18:22:00,21.0,15.0,30.47,North,355,0.0,0.0,78,0.00,,,0.00,,2013-01-15 00:22:00,
2013-01-14 18:33:00,21.0,16.0,30.47,North,355,0.0,0.0,81,0.00,,,0.00,,2013-01-15 00:33:00,
2013-01-14 18:43:00,21.0,16.0,30.47,North,355,0.0,0.0,81,0.00,,,0.00,,2013-01-15 00:43:00,
2013-01-14 18:52:00,21.0,16.0,30.46,North,355,0.0,0.0,81,0.00,,,0.00,,2013-01-15 00:52:00,
2013-01-14 19:02:00,21.0,16.0,30.47,North,355,0.0,0.0,81,0.00,,,0.00,,2013-01-15 01:02:00,
2013-01-14 19:12:00,21.0,16.0,30.47,North,355,0.0,0.0,81,0.00,,,0.00,,2013-01-15 01:12:00,
2013-01-14 19:22:00,20.0,15.0,30.46,North,355,0.0,0.0,82,0.00,,,0.00,,2013-01-15 01:22:00,
2013-01-14 19:32:00,20.0,16.0,30.46,North,355,0.0,0.0,83,0.00,,,0.00,,2013-01-15 01:32:00,
2013-01-14 19:43:00,20.0,16.0,30.46,North,355,0.0,0.0,83,0.00,,,0.00,,2013-01-15 01:43:00,
2013-01-14 19:52:00,19.0,15.0,30.47,North,355,0.0,0.0,84,0.00,,,0.00,,2013-01-15 01:52:00,
2013-01-14 20:02:00,19.0,15.0,30.47,North,355,0.0,0.0,84,0.00,,,0.00,,2013-01-15 02:02:00,
2013-01-14 20:12:00,19.0,15.0,30.47,North,355,0.0,0.0,84,0.00,,,0.00,,2013-01-15 02:12:00,
2013-01-14 20:22:00,19.0,16.0,30.46,North,355,0.0,0.0,86,0.00,,,0.00,,2013-01-15 02:22:00,
2013-01-14 20:32:00,19.0,16.0,30.45,North,355,0.0,0.0,86,0.00,,,0.00,,2013-01-15 02:32:00,
2013-01-14 20:42:00,19.0,16.0,30.45,North,355,0.0,0.0,86,0.00,,,0.00,,2013-01-15 02:42:00,
2013-01-14 20:52:00,19.0,16.0,30.45,North,355,0.0,0.0,87,0.00,,,0.00,,2013-01-15 02:52:00,
2013-01-14 21:02:00,18.0,15.0,30.45,North,355,0.0,0.0,87,0.00,,,0.00,,2013-01-15 03:02:00,
2013-01-14 21:12:00,18.0,15.0,30.45,North,355,0.0,0.0,87,0.00,,,0.00,,2013-01-15 03:12:00,
2013-01-14 21:22:00,18.0,15.0,30.45,North,355,0.0,0.0,87,0.00,,,0.00,,2013-01-15 03:22:00,
2013-01-14 21:33:00,18.0,15.0,30.45,North,355,0.0,0.0,87,0.00,,,0.00,,2013-01-15 03:33:00,
2013-01-14 21:42:00,18.0,15.0,30.45,North,355,0.0,0.0,87,0.00,,,0.00,,2013-01-15 03:42:00,
2013-01-14 21:52:00,17.0,14.0,30.45,North,355,0.0,0.0,88,0.00,,,0.00,,2013-01-15 03:52:00,
2013-01-14 22:02:00,17.0,14.0,30.44,North,355,0.0,0.0,88,0.00,,,0.00,,2013-01-15 04:02:00,
2013-01-14 22:12:00,17.0,14.0,30.44,North,355,0.0,0.0,88,0.00,,,0.00,,2013-01-15 04:12:00,
2013-01-14 22:22:00,18.0,15.0,30.44,North,355,0.0,0.0,88,0.00,,,0.00,,2013-01-15 04:22:00,
2013-01-14 22:32:00,18.0,15.0,30.44,North,355,0.0,0.0,87,0.00,,,0.00,,2013-01-15 04:32:00,
2013-01-14 22:42:00,18.0,15.0,30.44,North,355,0.0,0.0,87,0.00,,,0.00,,2013-01-15 04:42:00,
2013-01-14 22:52:00,17.0,14.0,30.45,North,355,0.0,1.0,87,0.00,,,0.00,,2013-01-15 04:52:00,
2013-01-14 23:03:00,17.0,14.0,30.45,North,355,0.0,1.0,87,0.00,,,0.00,,2013-01-15 05:03:00,
2013-01-14 23:12:00,17.0,14.0,30.45,North,355,0.0,1.0,87,0.00,,,0.00,,2013-01-15 05:12:00,
2013-01-14 23:22:00,17.0,14.0,30.45,North,355,0.0,1.0,88,0.00,,,0.00,,2013-01-15 05:22:00,
2013-01-14 23:33:00,17.0,14.0,30.46,North,355,0.0,1.0,88,0.00,,,0.00,,2013-01-15 05:33:00,
2013-01-14 23:42:00,17.0,14.0,30.46,North,355,0.0,1.0,88,0.00,,,0.00,,2013-01-15 05:42:00,
2013-01-14 23:52:00,17.0,14.0,30.45,North,355,0.0,0.0,88,0.00,,,0.00,,2013-01-15 05:52:00,